KF4UQS-14 Weather Reports


time (UTC)temp
C
wind
direction
speed
KPH
gust
KPH
rain 1hr
cm
rain 24hr
cm
rain mn
cm
humidity
%
barometer
mb
20260505101939 14 147 6.4 6.4 0.00 0.00 0.00 82 1016.6
20260505101432 14 218 4.8 6.4 0.00 0.00 0.00 82 1016.4
20260505100928 13 192 4.8 4.8 0.00 0.00 0.00 83 1016.3
20260505100425 13 207 6.4 6.4 0.00 0.00 0.00 83 1016.3
20260505095921 13 215 6.4 9.7 0.00 0.00 0.00 83 1016.3
20260505095419 13 228 4.8 6.4 0.00 0.00 0.00 83 1016.3
20260505094914 13 187 3.2 4.8 0.00 0.00 0.00 83 1016.1
20260505094412 13 206 6.4 6.4 0.00 0.00 0.00 82 1016.1
20260505093907 14 216 6.4 6.4 0.00 0.00 0.00 82 1016.2
20260505093404 14 189 6.4 6.4 0.00 0.00 0.00 82 1016.0
20260505092902 14 197 8.0 9.7 0.00 0.00 0.00 82 1016.0
20260505092400 14 187 6.4 6.4 0.00 0.00 0.00 82 1016.0
20260505091857 13 200 4.8 4.8 0.00 0.00 0.00 82 1016.1
20260505091355 14 151 3.2 4.8 0.00 0.00 0.00 82 1016.0
20260505090852 14 201 6.4 11.3 0.00 0.00 0.00 81 1015.9
20260505090350 14 218 6.4 6.4 0.00 0.00 0.00 81 1016.2
20260505085847 13 198 4.8 4.8 0.00 0.00 0.00 82 1016.1
20260505085345 13 181 4.8 6.4 0.00 0.00 0.00 82 1015.9
20260505084843 13 192 3.2 4.8 0.00 0.00 0.00 82 1016.1
20260505084341 13 205 3.2 4.8 0.00 0.00 0.00 82 1016.1
20260505083838 14 204 4.8 4.8 0.00 0.00 0.00 81 1016.0
20260505083335 14 182 4.8 6.4 0.00 0.00 0.00 81 1016.1
20260505082832 14 186 3.2 3.2 0.00 0.00 0.00 80 1016.0
20260505082328 14 186 3.2 3.2 0.00 0.00 0.00 80 1016.0
20260505081825 14 199 4.8 4.8 0.00 0.00 0.00 80 1016.0
20260505081321 14 186 4.8 4.8 0.00 0.00 0.00 79 1015.9
20260505080819 14 190 6.4 6.4 0.00 0.00 0.00 79 1015.9
20260505080315 15 198 4.8 4.8 0.00 0.00 0.00 78 1015.9
20260505075810 15 192 3.2 3.2 0.00 0.00 0.00 77 1015.9
20260505075307 15 200 4.8 4.8 0.00 0.00 0.00 77 1015.7
20260505074805 15 204 4.8 6.4 0.00 0.00 0.00 78 1015.8
20260505074301 15 207 4.8 6.4 0.00 0.00 0.00 77 1015.7
20260505073759 15 212 4.8 4.8 0.00 0.00 0.00 76 1015.6
20260505073257 15 184 4.8 4.8 0.00 0.00 0.00 76 1015.6
20260505072753 15 209 4.8 4.8 0.00 0.00 0.00 76 1015.7
20260505072249 15 188 6.4 6.4 0.00 0.00 0.00 76 1015.4
20260505071745 15 219 4.8 4.8 0.00 0.00 0.00 76 1015.4
20260505071242 15 198 6.4 6.4 0.00 0.00 0.00 76 1015.5
20260505070740 15 202 6.4 9.7 0.00 0.00 0.00 75 1015.4
20260505070235 15 196 6.4 6.4 0.00 0.00 0.00 75 1015.5
20260505065732 15 173 4.8 4.8 0.00 0.00 0.00 75 1015.4
20260505065229 15 215 4.8 6.4 0.00 0.00 0.00 75 1015.3
20260505064726 15 184 6.4 6.4 0.00 0.00 0.00 75 1015.4
20260505064223 15 143 4.8 9.7 0.00 0.00 0.00 75 1015.6
20260505063720 15 196 4.8 4.8 0.00 0.00 0.00 75 1015.5
20260505063216 15 189 3.2 3.2 0.00 0.00 0.00 74 1015.8
20260505062713 15 203 4.8 4.8 0.00 0.00 0.00 74 1015.7
20260505062206 15 204 3.2 4.8 0.00 0.00 0.00 73 1015.6
20260505061702 16 182 6.4 6.4 0.00 0.00 0.00 73 1015.5
20260505061200 16 215 4.8 6.4 0.00 0.00 0.00 72 1015.7
20260505060657 16 188 4.8 4.8 0.00 0.00 0.00 72 1015.5
20260505060153 16 194 3.2 4.8 0.00 0.00 0.00 72 1015.6
20260505055648 16 183 3.2 3.2 0.00 0.00 0.00 72 1015.8
20260505055145 16 209 6.4 6.4 0.00 0.00 0.00 71 1015.8
20260505054643 16 208 4.8 6.4 0.00 0.00 0.00 70 1015.6
20260505054141 16 209 6.4 6.4 0.00 0.00 0.00 70 1015.7
20260505053638 16 190 6.4 9.7 0.00 0.00 0.00 69 1015.6
20260505053134 16 199 4.8 4.8 0.00 0.00 0.00 69 1015.8
20260505052632 16 186 6.4 9.7 0.00 0.00 0.00 68 1015.9
20260505052129 16 203 6.4 6.4 0.00 0.00 0.00 69 1015.8
20260505051626 16 188 4.8 4.8 0.00 0.00 0.00 69 1015.8
20260505051124 17 200 6.4 6.4 0.00 0.00 0.00 68 1015.9
20260505050621 17 187 8.0 12.9 0.00 0.00 0.00 68 1015.8
20260505050120 17 156 6.4 6.4 0.00 0.00 0.00 68 1016.0
20260505041549 17 223 6.4 9.7 0.00 0.00 0.00 66 1015.9
20260505041047 17 216 9.7 12.9 0.00 0.00 0.00 66 1015.9
20260505040544 17 266 4.8 6.4 0.00 0.00 0.00 67 1015.9
20260505040041 17 217 6.4 9.7 0.00 0.00 0.00 66 1015.9
20260505035537 17 201 11.3 12.9 0.00 0.00 0.00 65 1015.8
20260505035034 17 207 9.7 11.3 0.00 0.00 0.00 65 1015.9
20260505034530 17 211 11.3 14.5 0.00 0.00 0.00 65 1015.6
20260505034027 17 206 6.4 11.3 0.00 0.00 0.00 64 1015.6
20260505033524 17 175 8.0 11.3 0.00 0.00 0.00 64 1015.6
20260505033022 18 194 9.7 12.9 0.00 0.00 0.00 63 1015.6
20260505032520 18 201 11.3 16.1 0.00 0.00 0.00 63 1015.7
20260505032016 18 220 9.7 11.3 0.00 0.00 0.00 63 1015.6
20260505031513 18 207 11.3 14.5 0.00 0.00 0.00 63 1015.6
20260505031009 18 176 11.3 14.5 0.00 0.00 0.00 63 1015.5
20260505030506 18 208 11.3 12.9 0.00 0.00 0.00 63 1015.8
20260505030001 18 202 12.9 14.5 0.00 0.00 0.00 63 1015.6
20260505025458 18 230 9.7 11.3 0.00 0.00 0.00 63 1015.7
20260505024958 18 189 9.7 12.9 0.00 0.00 0.00 64 1015.6
20260505024454 18 178 8.0 9.7 0.00 0.00 0.00 64 1015.4
20260505023951 18 186 9.7 11.3 0.00 0.00 0.00 64 1015.3
20260505023448 18 191 8.0 12.9 0.00 0.00 0.00 64 1015.4
20260505022946 18 202 11.3 14.5 0.00 0.00 0.00 64 1015.5
20260505022443 18 181 12.9 16.1 0.00 0.00 0.00 64 1015.3
20260505021940 18 204 12.9 14.5 0.00 0.00 0.00 65 1015.5
20260505021436 18 206 11.3 14.5 0.00 0.00 0.00 65 1015.5
20260505020932 18 214 9.7 12.9 0.00 0.00 0.00 65 1015.4
20260505020428 18 201 8.0 11.3 0.00 0.00 0.00 65 1015.5
20260505015925 18 182 12.9 16.1 0.00 0.00 0.00 65 1015.5
20260505015422 18 181 17.7 20.9 0.00 0.00 0.00 64 1015.3
20260505014919 18 194 9.7 14.5 0.00 0.00 0.00 65 1015.4
20260505014416 18 204 9.7 12.9 0.00 0.00 0.00 65 1015.3
20260505013913 18 202 8.0 9.7 0.00 0.00 0.00 65 1015.4
20260505013410 18 198 8.0 9.7 0.00 0.00 0.00 65 1015.1
20260505012908 18 206 9.7 11.3 0.00 0.00 0.00 65 1015.4
20260505012406 18 181 11.3 12.9 0.00 0.00 0.00 65 1015.2
20260505011901 19 186 9.7 14.5 0.00 0.00 0.00 65 1015.4
20260505011358 19 201 11.3 14.5 0.00 0.00 0.00 64 1015.0
20260505010855 19 183 9.7 11.3 0.00 0.00 0.00 64 1014.9
20260505010350 19 180 11.3 14.5 0.00 0.00 0.00 64 1014.9
20260505005847 19 185 8.0 9.7 0.00 0.00 0.00 64 1014.9
20260505005344 19 185 9.7 12.9 0.00 0.00 0.00 64 1014.7
20260505004841 19 192 8.0 9.7 0.00 0.00 0.00 64 1014.6
20260505004337 19 197 11.3 12.9 0.00 0.00 0.00 64 1014.7
20260505003835 19 185 6.4 6.4 0.00 0.00 0.00 64 1014.5
20260505003332 19 186 11.3 14.5 0.00 0.00 0.00 64 1014.6
20260505002828 20 175 14.5 16.1 0.00 0.00 0.00 62 1014.6
20260505002325 20 188 9.7 9.7 0.00 0.00 0.00 63 1014.4
20260505001823 20 226 6.4 9.7 0.00 0.00 0.00 63 1014.5
20260505001320 20 189 9.7 11.3 0.00 0.00 0.00 62 1014.5
20260505000817 20 193 12.9 14.5 0.00 0.00 0.00 62 1014.4
20260505000315 20 181 11.3 12.9 0.00 0.00 0.00 61 1014.3
20260504235811 20 194 11.3 12.9 0.00 0.00 0.00 61 1014.2
20260504235308 20 196 11.3 14.5 0.00 0.00 0.00 61 1014.2
20260504234805 20 181 11.3 12.9 0.00 0.00 0.00 60 1014.1
20260504234303 20 206 8.0 9.7 0.00 0.00 0.00 60 1014.0
20260504233759 20 183 14.5 16.1 0.00 0.00 0.00 59 1013.9
20260504233255 21 197 11.3 14.5 0.00 0.00 0.00 58 1013.9
20260504232752 21 175 12.9 12.9 0.00 0.00 0.00 59 1013.9
20260504232249 21 187 16.1 17.7 0.00 0.00 0.00 58 1013.8
20260504231746 21 198 9.7 11.3 0.00 0.00 0.00 58 1013.8
20260504231242 21 181 20.9 27.4 0.00 0.00 0.00 58 1013.8
20260504230738 21 194 14.5 20.9 0.00 0.00 0.00 57 1013.7
20260504230237 21 188 9.7 11.3 0.00 0.00 0.00 57 1013.9
20260504225735 21 206 12.9 16.1 0.00 0.00 0.00 56 1013.6
20260504225231 22 180 16.1 20.9 0.00 0.00 0.00 56 1013.8
20260504224728 22 204 19.3 22.5 0.00 0.00 0.00 55 1013.4
20260504224226 22 196 14.5 17.7 0.00 0.00 0.00 55 1013.5
20260504223722 22 205 14.5 14.5 0.00 0.00 0.00 54 1013.7
20260504223217 22 204 11.3 14.5 0.00 0.00 0.00 54 1013.5
20260504222715 22 218 14.5 17.7 0.00 0.00 0.00 53 1013.3
20260504222211 23 188 14.5 16.1 0.00 0.00 0.00 53 1013.3
20260504221709 23 165 19.3 29.0 0.00 0.00 0.00 52 1013.4
20260504221206 23 198 9.7 11.3 0.00 0.00 0.00 51 1013.3
20260504220702 23 161 20.9 27.4 0.00 0.00 0.00 48 1013.3
20260504220200 25 203 17.7 17.7 0.00 0.00 0.00 40 1013.2
20260504215656 25 213 9.7 11.3 0.00 0.00 0.00 37 1013.3
20260504215154 25 226 11.3 14.5 0.00 0.00 0.00 37 1013.3
20260504214649 25 215 9.7 12.9 0.00 0.00 0.00 36 1013.4
20260504214146 25 206 6.4 11.3 0.00 0.00 0.00 36 1013.3
20260504213642 25 38 4.8 6.4 0.00 0.00 0.00 37 1013.3
20260504213139 25 84 1.6 3.2 0.00 0.00 0.00 36 1013.3
20260504212636 25 215 9.7 14.5 0.00 0.00 0.00 36 1013.5
20260504212132 25 181 12.9 14.5 0.00 0.00 0.00 36 1013.6
20260504211630 25 205 9.7 17.7 0.00 0.00 0.00 36 1013.5
20260504211126 25 198 12.9 14.5 0.00 0.00 0.00 38 1013.4
20260504210624 26 195 9.7 12.9 0.00 0.00 0.00 36 1013.6
20260504210120 25 306 8.0 12.9 0.00 0.00 0.00 33 1013.6
20260504205618 25 214 11.3 17.7 0.00 0.00 0.00 34 1013.5
20260504205115 25 212 9.7 12.9 0.00 0.00 0.00 36 1013.5
20260504204614 26 181 12.9 16.1 0.00 0.00 0.00 36 1013.5
20260504204112 25 197 16.1 20.9 0.00 0.00 0.00 36 1013.5
20260504203610 26 224 6.4 9.7 0.00 0.00 0.00 37 1013.5
20260504203108 25 221 12.9 17.7 0.00 0.00 0.00 36 1013.5
20260504202603 25 219 9.7 12.9 0.00 0.00 0.00 35 1013.6
20260504202100 25 181 14.5 17.7 0.00 0.00 0.00 36 1013.6
20260504201556 25 207 6.4 11.3 0.00 0.00 0.00 36 1013.7
20260504201055 25 218 12.9 14.5 0.00 0.00 0.00 35 1013.6
20260504200550 25 210 14.5 17.7 0.00 0.00 0.00 36 1013.6
20260504200047 25 207 9.7 12.9 0.00 0.00 0.00 35 1013.6
20260504195543 25 203 14.5 16.1 0.00 0.00 0.00 34 1013.8
20260504195040 27 305 3.2 6.4 0.00 0.00 0.00 33 1014.0
20260504194537 26 121 8.0 14.5 0.00 0.00 0.00 35 1013.8
20260504194032 26 348 4.8 6.4 0.00 0.00 0.00 35 1014.0
20260504193529 25 185 11.3 20.9 0.00 0.00 0.00 35 1013.9
20260504193028 26 154 3.2 3.2 0.00 0.00 0.00 35 1014.2
20260504192526 26 213 6.4 6.4 0.00 0.00 0.00 35 1014.2
20260504192024 25 202 11.3 14.5 0.00 0.00 0.00 36 1014.3
20260504191521 26 189 6.4 9.7 0.00 0.00 0.00 39 1014.3
20260504191017 26 273 4.8 6.4 0.00 0.00 0.00 36 1014.3
20260504190514 26 10 4.8 6.4 0.00 0.00 0.00 35 1014.3
20260504190010 25 48 1.6 3.2 0.00 0.00 0.00 38 1014.4
20260504185507 26 19 1.6 3.2 0.00 0.00 0.00 38 1014.5
20260504185003 25 340 4.8 6.4 0.00 0.00 0.00 37 1014.7
20260504184459 25 191 8.0 11.3 0.00 0.00 0.00 37 1014.8
20260504183954 25 194 17.7 22.5 0.00 0.00 0.00 38 1014.7
20260504183452 25 189 11.3 16.1 0.00 0.00 0.00 38 1014.8
20260504182950 25 52 1.6 3.2 0.00 0.00 0.00 39 1015.1
20260504182446 26 190 14.5 16.1 0.00 0.00 0.00 35 1015.1
20260504181944 25 79 3.2 3.2 0.00 0.00 0.00 37 1015.0
20260504181440 25 348 6.4 9.7 0.00 0.00 0.00 38 1015.0
20260504180939 25 180 9.7 12.9 0.00 0.00 0.00 38 1015.0
20260504180438 25 211 16.1 20.9 0.00 0.00 0.00 38 1015.4
20260504175935 26 224 4.8 9.7 0.00 0.00 0.00 36 1015.2
20260504175432 26 272 9.7 14.5 0.00 0.00 0.00 37 1015.0
20260504174930 25 95 8.0 11.3 0.00 0.00 0.00 38 1015.1
20260504174428 24 199 11.3 12.9 0.00 0.00 0.00 41 1015.2
20260504173925 24 240 12.9 14.5 0.00 0.00 0.00 39 1015.1
20260504173421 23 36 3.2 3.2 0.00 0.00 0.00 41 1015.4
20260504172919 24 194 17.7 20.9 0.00 0.00 0.00 38 1015.5
20260504172414 24 204 8.0 12.9 0.00 0.00 0.00 39 1015.6
20260504171911 23 216 11.3 17.7 0.00 0.00 0.00 42 1015.8
20260504171408 23 210 8.0 14.5 0.00 0.00 0.00 42 1015.6
20260504170905 23 191 9.7 11.3 0.00 0.00 0.00 42 1015.8
20260504170402 23 205 9.7 12.9 0.00 0.00 0.00 44 1015.7
20260504160320 22 196 6.4 11.3 0.00 0.00 0.00 44 1016.4
20260504150745 21 167 16.1 20.9 0.00 0.00 0.00 49 1016.8
20260504150242 21 188 9.7 11.3 0.00 0.00 0.00 50 1016.8
20260504141211 20 257 11.3 12.9 0.00 0.00 0.00 56 1016.9
20260504140708 20 213 9.7 12.9 0.00 0.00 0.00 58 1017.2
20260504140203 19 185 9.7 12.9 0.00 0.00 0.00 60 1017.0
20260504130632 17 216 8.0 14.5 0.00 0.00 0.00 69 1017.6
20260504130129 16 192 11.3 14.5 0.00 0.00 0.00 69 1017.8
20260504110520 10 100 1.6 1.6 0.00 0.00 0.00 95 1018.0